FW4683 Weather Reports


Display with metric or nautical units.
time (UTC)temp
F
wind
direction
speed
MPH
gust
MPH
rain 1hr
in
rain 24hr
in
rain mn
in
humidity
%
barometer
mb
20260510130525 63 96 0.0 0.0 0.00 0.00 0.00 78 1016.8
20260510125526 62 96 0.0 2.0 0.00 0.00 0.00 78 1016.7
20260510125024 61 96 0.0 4.0 0.00 0.00 0.00 80 1016.6
20260510124526 61 96 2.0 4.0 0.00 0.00 0.00 80 1016.6
20260510124023 61 96 1.0 3.0 0.00 0.00 0.00 81 1016.5
20260510123523 60 96 0.0 3.0 0.00 0.00 0.00 82 1016.6
20260510123020 60 96 0.0 3.0 0.00 0.00 0.00 82 1016.8
20260510122520 59 96 0.0 2.0 0.00 0.00 0.00 83 1016.7
20260510122020 58 96 0.0 1.0 0.00 0.00 0.00 85 1016.6
20260510121518 58 96 0.0 1.0 0.00 0.00 0.00 86 1016.6
20260510121020 57 96 0.0 2.0 0.00 0.00 0.00 86 1016.5
20260510120521 56 96 0.0 3.0 0.00 0.00 0.00 87 1016.5
20260510115523 56 96 1.0 4.0 0.00 0.00 0.00 88 1016.3
20260510115018 55 96 1.0 4.0 0.00 0.00 0.00 89 1016.2
20260510114515 55 96 0.0 2.0 0.00 0.00 0.00 90 1016.2
20260510114015 54 96 0.0 3.0 0.00 0.00 0.00 91 1016.2
20260510113514 54 96 1.0 3.0 0.00 0.00 0.00 91 1016.1
20260510113014 54 96 1.0 4.0 0.00 0.00 0.00 92 1016.1
20260510112513 54 96 2.0 4.0 0.00 0.00 0.00 91 1016.0
20260510112012 53 96 0.0 3.0 0.00 0.00 0.00 91 1015.6
20260510111511 54 96 0.0 1.0 0.00 0.00 0.00 92 1015.5
20260510111010 53 96 0.0 1.0 0.00 0.00 0.00 92 1015.4
20260510110510 53 96 0.0 2.0 0.00 0.00 0.00 93 1015.3
20260510105512 53 96 0.0 2.0 0.00 0.00 0.00 92 1015.2
20260510105011 53 96 1.0 2.0 0.00 0.00 0.00 93 1015.1
20260510104511 52 96 0.0 2.0 0.00 0.00 0.00 94 1015.0
20260510104011 52 96 1.0 2.0 0.00 0.00 0.00 94 1014.9
20260510103510 52 96 0.0 2.0 0.00 0.00 0.00 94 1014.9
20260510103009 52 96 1.0 2.0 0.00 0.00 0.00 94 1014.8
20260510102509 52 96 0.0 1.0 0.00 0.00 0.00 94 1014.7
20260510102011 52 96 0.0 1.0 0.00 0.00 0.00 94 1014.7
20260510101507 52 96 0.0 1.0 0.00 0.00 0.00 94 1014.6
20260510101006 52 96 0.0 2.0 0.00 0.00 0.00 94 1014.5
20260510100508 53 96 1.0 3.0 0.00 0.00 0.00 93 1014.5
20260510095502 53 96 1.0 3.0 0.00 0.00 0.00 93 1014.4
20260510095002 53 96 0.0 4.0 0.00 0.00 0.00 93 1014.3
20260510094501 53 96 2.0 4.0 0.00 0.00 0.00 94 1014.2
20260510094100 53 96 0.0 0.0 0.00 0.00 0.00 94 1014.1
20260510093559 53 96 0.0 0.0 0.00 0.00 0.00 94 1014.1
20260510093109 53 96 0.0 0.0 0.00 0.00 0.00 94 1014.0
20260510092558 53 96 0.0 0.0 0.00 0.00 0.00 94 1014.1
20260510092058 54 96 0.0 0.0 0.00 0.00 0.00 94 1013.9
20260510091558 54 96 0.0 0.0 0.00 0.00 0.00 94 1013.9
20260510091056 54 96 0.0 2.0 0.00 0.00 0.00 94 1013.8
20260510090556 54 96 0.0 2.0 0.00 0.00 0.00 94 1013.8
20260510085557 54 96 1.0 3.0 0.00 0.00 0.00 94 1013.6
20260510085054 54 96 1.0 3.0 0.00 0.00 0.00 94 1013.6
20260510084559 54 96 0.0 0.0 0.00 0.00 0.00 94 1013.6
20260510084055 54 96 0.0 1.0 0.00 0.00 0.00 93 1013.6
20260510083555 55 96 0.0 1.0 0.00 0.00 0.00 93 1013.5
20260510083054 55 96 0.0 1.0 0.00 0.00 0.00 93 1013.4
20260510082553 55 96 0.0 2.0 0.00 0.00 0.00 93 1013.4
20260510082056 55 96 0.0 4.0 0.00 0.00 0.00 93 1013.4
20260510081621 55 96 2.0 4.0 0.00 0.00 0.00 93 1013.4
20260510081051 55 96 0.0 0.0 0.00 0.00 0.00 92 1013.3
20260510080550 55 96 0.0 0.0 0.00 0.00 0.00 92 1013.3
20260510075551 55 96 0.0 0.0 0.00 0.00 0.00 92 1013.2
20260510075049 55 96 0.0 0.0 0.00 0.00 0.00 92 1013.2
20260510074549 55 96 0.0 0.0 0.00 0.00 0.00 92 1013.1
20260510074050 56 96 0.0 0.0 0.00 0.00 0.00 92 1013.0
20260510073546 56 96 0.0 0.0 0.00 0.00 0.00 92 1013.0
20260510073057 56 96 0.0 0.0 0.00 0.00 0.00 92 1013.0
20260510072546 56 96 0.0 0.0 0.00 0.00 0.00 92 1012.8
20260510072047 56 96 0.0 0.0 0.00 0.00 0.00 92 1012.9
20260510071544 57 96 0.0 0.0 0.00 0.00 0.00 92 1012.9
20260510071044 57 96 0.0 0.0 0.00 0.00 0.00 92 1012.7
20260510070544 57 96 0.0 0.0 0.00 0.00 0.00 92 1012.7
20260510065546 57 96 0.0 0.0 0.00 0.00 0.00 92 1012.6
20260510065043 57 96 0.0 0.0 0.00 0.00 0.00 92 1012.6
20260510064553 57 96 0.0 0.0 0.00 0.00 0.00 92 1012.6
20260510064041 57 96 0.0 0.0 0.00 0.00 0.00 92 1012.6
20260510063540 57 96 0.0 0.0 0.00 0.00 0.00 93 1012.6
20260510063043 58 96 0.0 0.0 0.00 0.00 0.00 93 1012.7
20260510062539 58 96 0.0 0.0 0.00 0.00 0.00 93 1012.7
20260510062038 58 96 0.0 0.0 0.00 0.00 0.00 93 1012.6
20260510061544 58 96 0.0 0.0 0.00 0.00 0.00 92 1012.7
20260510061038 58 96 0.0 0.0 0.00 0.00 0.00 93 1012.7
20260510060537 58 96 0.0 2.0 0.00 0.00 0.00 92 1012.7
20260510055534 59 96 0.0 1.0 0.00 0.00 0.00 92 1012.8
20260510055038 59 96 0.0 1.0 0.00 0.00 0.00 92 1012.9
20260510054536 59 96 0.0 1.0 0.00 0.00 0.00 92 1013.0
20260510054033 59 96 0.0 3.0 0.00 0.00 0.00 92 1013.0
20260510053534 59 96 1.0 3.0 0.00 0.00 0.00 92 1013.0
20260510053041 59 96 0.0 4.0 0.00 0.00 0.00 92 1013.0
20260510052532 59 96 1.0 4.0 0.00 0.00 0.00 92 1012.9
20260510052032 60 96 1.0 3.0 0.00 0.00 0.00 91 1013.0
20260510051530 60 96 0.0 1.0 0.00 0.00 0.00 91 1013.1
20260510051031 60 96 0.0 1.0 0.00 0.00 0.00 91 1013.2
20260510050529 60 96 0.0 1.0 0.00 0.00 0.00 91 1013.1
20260510045531 61 96 0.0 2.0 0.00 0.00 0.00 91 1013.1
20260510045031 61 96 1.0 2.0 0.00 0.00 0.00 90 1013.2
20260510044544 61 96 0.0 1.0 0.00 0.00 0.00 90 1013.1
20260510044030 61 96 0.0 2.0 0.00 0.00 0.00 91 1013.1
20260510043531 61 96 0.0 4.0 0.00 0.00 0.00 91 1013.2
20260510043036 61 96 2.0 4.0 0.00 0.00 0.00 91 1013.3
20260510042532 61 96 2.0 4.0 0.00 0.00 0.00 90 1013.3
20260510042030 61 96 0.0 1.0 0.00 0.00 0.00 90 1013.1
20260510041533 61 96 0.0 1.0 0.00 0.00 0.00 90 1013.0
20260510041030 61 96 0.0 0.0 0.00 0.00 0.00 90 1012.9
20260510040530 62 96 0.0 0.0 0.00 0.00 0.00 89 1012.9
20260510035530 62 96 0.0 2.0 0.00 0.00 0.00 88 1013.1
20260510035035 62 96 0.0 2.0 0.00 0.00 0.00 88 1013.1
20260510034534 62 96 0.0 2.0 0.00 0.00 0.00 88 1013.3
20260510034030 62 96 0.0 0.0 0.00 0.00 0.00 88 1013.2
20260510033530 62 96 0.0 0.0 0.00 0.00 0.00 88 1013.2
20260510033047 62 96 0.0 0.0 0.00 0.00 0.00 88 1013.1
20260510032533 62 96 0.0 0.0 0.00 0.00 0.00 88 1013.1
20260510032030 62 96 0.0 1.0 0.00 0.00 0.00 88 1013.2
20260510031534 63 96 0.0 2.0 0.00 0.00 0.00 88 1013.2
20260510031030 63 96 0.0 3.0 0.00 0.00 0.00 88 1013.0
20260510030531 63 96 1.0 3.0 0.00 0.00 0.00 87 1013.1
20260510025529 64 96 0.0 2.0 0.00 0.00 0.00 87 1013.0
20260510025031 63 96 0.0 1.0 0.00 0.00 0.00 87 1013.0
20260510024529 63 96 0.0 2.0 0.00 0.00 0.00 87 1013.0
20260510024028 63 96 0.0 2.0 0.00 0.00 0.00 87 1012.9
20260510023528 64 96 0.0 2.0 0.00 0.00 0.00 86 1012.9
20260510023028 64 96 0.0 0.0 0.00 0.00 0.00 86 1013.0
20260510022529 64 96 0.0 1.0 0.00 0.00 0.00 85 1012.8
20260510022031 64 96 0.0 1.0 0.00 0.00 0.00 85 1012.8
20260510021527 64 96 0.0 1.0 0.00 0.00 0.00 85 1012.7
20260510021027 64 96 0.0 1.0 0.00 0.00 0.00 85 1012.6
20260510020527 64 96 0.0 2.0 0.00 0.00 0.00 85 1012.5
20260510015527 65 96 0.0 2.0 0.00 0.00 0.00 84 1012.4
20260510015031 65 96 0.0 1.0 0.00 0.00 0.00 83 1012.3
20260510014534 66 96 0.0 0.0 0.00 0.00 0.00 82 1012.3
20260510014030 66 96 0.0 0.0 0.00 0.00 0.00 81 1012.2
20260510013525 67 96 0.0 2.0 0.00 0.00 0.00 80 1012.0
20260510013026 67 96 0.0 2.0 0.00 0.00 0.00 80 1012.0
20260510012526 67 96 0.0 2.0 0.00 0.00 0.00 79 1011.9
20260510012026 67 96 0.0 2.0 0.00 0.00 0.00 79 1011.9
20260510011526 67 96 0.0 1.0 0.00 0.00 0.00 79 1011.7
20260510011025 67 96 0.0 3.0 0.00 0.00 0.00 79 1011.9
20260510010525 68 96 1.0 6.0 0.00 0.00 0.00 78 1011.9
20260510005526 68 96 2.0 6.0 0.00 0.00 0.00 78 1011.7
20260510005027 68 96 0.0 7.0 0.00 0.00 0.00 78 1011.4
20260510004525 68 96 2.0 7.0 0.00 0.00 0.00 77 1011.5
20260510004024 68 96 0.0 7.0 0.00 0.00 0.00 77 1011.4
20260510003525 68 96 2.0 7.0 0.00 0.00 0.00 77 1011.3
20260510003025 68 96 2.0 6.0 0.00 0.00 0.00 77 1011.1
20260510002525 68 96 3.0 8.0 0.00 0.00 0.00 77 1011.0
20260510002027 69 96 5.0 8.0 0.00 0.00 0.00 77 1010.9
20260510001523 69 96 4.0 8.0 0.00 0.00 0.00 76 1010.7
20260510001023 69 96 4.0 7.0 0.00 0.00 0.00 76 1010.7
20260510000523 69 96 2.0 8.0 0.00 0.00 0.00 75 1010.6
20260509235523 69 96 3.0 8.0 0.00 0.00 0.00 75 1010.4
20260509235028 69 96 4.0 10.0 0.00 0.00 0.00 75 1010.4
20260509234531 69 96 6.0 10.0 0.00 0.00 0.00 74 1010.3
20260509234022 70 96 3.0 8.0 0.00 0.00 0.00 74 1010.3
20260509233524 70 96 3.0 7.0 0.00 0.00 0.00 74 1010.3
20260509233023 70 96 3.0 12.0 0.00 0.00 0.00 74 1010.2
20260509232525 70 96 5.0 12.0 0.00 0.00 0.00 74 1010.2
20260509232022 70 96 5.0 9.0 0.00 0.00 0.00 73 1010.1
20260509231523 70 96 3.0 9.0 0.00 0.00 0.00 73 1010.0
20260509231027 71 96 3.0 10.0 0.00 0.00 0.00 73 1010.0
20260509230522 71 96 7.0 13.0 0.00 0.00 0.00 72 1010.1
20260509225523 71 96 4.0 14.0 0.00 0.00 0.00 72 1010.0
20260509225022 71 96 6.0 14.0 0.00 0.00 0.00 72 1010.0
20260509224521 71 96 9.0 13.0 0.00 0.00 0.00 72 1010.0
20260509224021 71 96 8.0 15.0 0.00 0.00 0.00 71 1009.8
20260509223522 71 96 8.0 15.0 0.00 0.00 0.00 71 1009.8
20260509223022 71 96 7.0 13.0 0.00 0.00 0.00 70 1009.9
20260509222522 71 96 8.0 16.0 0.00 0.00 0.00 70 1009.9
20260509222021 72 96 8.0 16.0 0.00 0.00 0.00 70 1009.9
20260509221521 72 96 11.0 16.0 0.00 0.00 0.00 68 1009.8
20260509221021 72 96 6.0 12.0 0.00 0.00 0.00 69 1009.7
20260509220520 72 96 7.0 15.0 0.00 0.00 0.00 68 1009.6
20260509215521 72 96 9.0 14.0 0.00 0.00 0.00 68 1009.4
20260509215021 72 96 9.0 16.0 0.00 0.00 0.00 69 1009.3
20260509214522 71 96 10.0 16.0 0.00 0.00 0.00 69 1009.1
20260509214022 72 96 9.0 15.0 0.00 0.00 0.00 68 1009.1
20260509213520 72 96 10.0 16.0 0.00 0.00 0.00 68 1009.0
20260509213020 72 96 8.0 16.0 0.00 0.00 0.00 69 1009.1
20260509212520 72 96 7.0 17.0 0.00 0.00 0.00 69 1009.3
20260509212022 72 96 10.0 19.0 0.00 0.00 0.00 68 1009.2
20260509211519 72 96 8.0 19.0 0.00 0.00 0.00 68 1009.2
20260509211019 73 96 9.0 17.0 0.00 0.00 0.00 67 1009.1
20260509210520 73 96 5.0 15.0 0.00 0.00 0.00 68 1009.2
20260509205521 73 96 8.0 15.0 0.00 0.00 0.00 68 1009.1
20260509205027 73 96 7.0 12.0 0.00 0.00 0.00 67 1009.1
20260509204520 73 96 7.0 15.0 0.00 0.00 0.00 68 1009.0
20260509204120 73 96 8.0 15.0 0.00 0.00 0.00 67 1009.0
20260509203521 72 96 5.0 14.0 0.00 0.00 0.00 68 1009.0
20260509203020 73 96 8.0 14.0 0.00 0.00 0.00 67 1009.2
20260509202520 73 96 5.0 15.0 0.00 0.00 0.00 67 1009.2
20260509202020 73 96 9.0 15.0 0.00 0.00 0.00 67 1009.2
20260509201519 73 96 5.0 12.0 0.00 0.00 0.00 67 1009.1
20260509201019 73 96 6.0 13.0 0.00 0.00 0.00 66 1009.1
20260509200518 73 96 6.0 14.0 0.00 0.00 0.00 67 1009.0
20260509195521 73 96 8.0 15.0 0.00 0.00 0.00 66 1009.0
20260509195015 73 96 6.0 15.0 0.00 0.00 0.00 66 1009.3
20260509194515 73 96 8.0 14.0 0.00 0.00 0.00 66 1009.4
20260509194015 73 96 7.0 14.0 0.00 0.00 0.00 65 1009.4
20260509193514 73 96 6.0 15.0 0.00 0.00 0.00 65 1009.4
20260509193014 73 96 7.0 14.0 0.00 0.00 0.00 65 1009.4
20260509192514 73 96 7.0 12.0 0.00 0.00 0.00 63 1009.4
20260509192015 73 96 7.0 15.0 0.00 0.00 0.00 63 1009.4
20260509191512 73 96 9.0 12.0 0.00 0.00 0.00 63 1009.3
20260509191012 73 96 6.0 14.0 0.00 0.00 0.00 65 1009.3
20260509190512 73 96 5.0 14.0 0.00 0.00 0.00 64 1009.4
20260509185511 72 96 1.0 13.0 0.00 0.00 0.00 66 1009.3
20260509185010 72 96 8.0 14.0 0.00 0.00 0.00 65 1009.5
20260509184508 72 96 6.0 14.0 0.00 0.00 0.00 65 1009.7
20260509184008 71 96 6.0 14.0 0.00 0.00 0.00 66 1009.9
20260509183508 71 96 9.0 16.0 0.00 0.00 0.00 66 1009.9
20260509183008 72 96 11.0 16.0 0.00 0.00 0.00 66 1009.9
20260509182507 71 96 4.0 13.0 0.00 0.00 0.00 66 1009.8
20260509182007 72 96 10.0 13.0 0.00 0.00 0.00 65 1010.0
20260509181506 71 96 2.0 10.0 0.00 0.00 0.00 64 1010.0
20260509181006 71 96 7.0 10.0 0.00 0.00 0.00 63 1010.0
20260509180506 71 96 3.0 11.0 0.00 0.00 0.00 65 1010.0
20260509175507 71 96 8.0 11.0 0.00 0.00 0.00 64 1010.1
20260509175012 72 96 4.0 9.0 0.00 0.00 0.00 63 1010.1
20260509174512 71 96 4.0 11.0 0.00 0.00 0.00 64 1010.3
20260509174007 70 96 6.0 12.0 0.00 0.00 0.00 65 1010.3
20260509173505 70 96 6.0 12.0 0.00 0.00 0.00 65 1010.4
20260509173005 72 96 1.0 12.0 0.00 0.00 0.00 62 1010.5
20260509172503 71 96 5.0 12.0 0.00 0.00 0.00 64 1010.5
20260509172003 71 96 1.0 11.0 0.00 0.00 0.00 65 1010.6
20260509171503 71 96 6.0 10.0 0.00 0.00 0.00 64 1010.6
20260509171003 70 96 2.0 10.0 0.00 0.00 0.00 64 1010.7
20260509170503 71 96 3.0 10.0 0.00 0.00 0.00 63 1010.6
20260509165559 69 96 1.0 9.0 0.00 0.00 0.00 68 1010.9
20260509165059 69 96 1.0 11.0 0.00 0.00 0.00 67 1010.9
20260509164558 68 96 6.0 12.0 0.00 0.00 0.00 67 1011.0
20260509164058 68 96 6.0 12.0 0.00 0.00 0.00 67 1011.1
20260509163557 68 96 5.0 12.0 0.00 0.00 0.00 68 1011.1
20260509163107 68 96 8.0 14.0 0.00 0.00 0.00 68 1011.1
20260509162557 68 96 8.0 14.0 0.00 0.00 0.00 68 1011.1
20260509162055 68 96 4.0 8.0 0.00 0.00 0.00 68 1011.3
20260509161556 68 96 6.0 11.0 0.00 0.00 0.00 66 1011.3
20260509161055 68 96 3.0 11.0 0.00 0.00 0.00 69 1011.4
20260509160555 68 96 6.0 10.0 0.00 0.00 0.00 67 1011.4
20260509155556 68 96 3.0 10.0 0.00 0.00 0.00 69 1011.5
20260509155054 67 96 5.0 11.0 0.00 0.00 0.00 69 1011.7
20260509154553 67 96 7.0 13.0 0.00 0.00 0.00 70 1011.7
20260509154055 67 96 5.0 13.0 0.00 0.00 0.00 69 1011.7
20260509153552 67 96 5.0 11.0 0.00 0.00 0.00 70 1011.7
20260509153051 66 96 5.0 12.0 0.00 0.00 0.00 69 1011.8
20260509152553 66 96 6.0 10.0 0.00 0.00 0.00 69 1011.7
20260509152051 66 96 5.0 9.0 0.00 0.00 0.00 70 1011.6
20260509151549 66 96 3.0 10.0 0.00 0.00 0.00 71 1011.6
20260509151051 65 96 5.0 10.0 0.00 0.00 0.00 70 1011.6
20260509150547 65 96 2.0 10.0 0.00 0.00 0.00 71 1011.7
20260509145547 65 96 2.0 10.0 0.00 0.00 0.00 71 1011.3
20260509145051 65 96 4.0 10.0 0.00 0.00 0.00 72 1011.4
20260509144639 65 96 3.0 9.0 0.00 0.00 0.00 73 1011.4
20260509144049 64 96 3.0 9.0 0.00 0.00 0.00 74 1011.6
20260509143545 64 96 4.0 8.0 0.00 0.00 0.00 74 1011.5
20260509143048 64 96 3.0 10.0 0.00 0.00 0.00 74 1011.5
20260509142548 63 96 4.0 10.0 0.00 0.00 0.00 75 1011.7
20260509142042 63 96 2.0 10.0 0.00 0.00 0.00 76 1011.6
20260509141544 63 96 4.0 10.0 0.00 0.00 0.00 76 1011.7
20260509141041 62 96 2.0 7.0 0.00 0.00 0.00 76 1011.8
20260509140540 63 96 1.0 4.0 0.00 0.00 0.00 75 1012.0
20260509135539 61 96 0.0 3.0 0.00 0.00 0.00 76 1012.0
20260509135038 61 96 0.0 2.0 0.00 0.00 0.00 77 1012.1
20260509134537 60 96 0.0 4.0 0.00 0.00 0.00 77 1011.9
20260509134035 60 96 0.0 6.0 0.00 0.00 0.00 78 1011.8
20260509133538 60 96 2.0 6.0 0.00 0.00 0.00 78 1011.7
20260509133035 59 96 1.0 4.0 0.00 0.00 0.00 78 1011.7
20260509132533 59 96 0.0 4.0 0.00 0.00 0.00 79 1011.8
20260509132033 58 96 0.0 4.0 0.00 0.00 0.00 80 1012.0
20260509131538 58 96 1.0 4.0 0.00 0.00 0.00 80 1012.0
20260509131029 57 96 2.0 7.0 0.00 0.00 0.00 80 1012.2